897  
ASUS41 KCTP 242010  
RWRCTP  
 
REGIONAL WEATHER ROUNDUP  
NATIONAL WEATHER SERVICE STATE COLLEGE PA  
400 PM EDT MON APR 24 2017  
 
NOTE: "FAIR" INDICATES FEW OR NO CLOUDS BELOW 12,000 FEET WITH NO  
SIGNIFICANT WEATHER AND/OR S TO VISIBILITY
.  
 
* = STATION THAT DOES NOT REPORT PRECIPITATION /E.G. RAIN...SNOW...ETC/  
THUNDER OR FOG.
 
 
PAZ002>004-007>009-013>016-020>023-029>032-242100-  
WESTERN PENNSYLVANIA  
 
CITY SKY/WX TMP DP RH WIND PRES REMARKS
 
ERIE SUNNY 57 44 62 NE23G31 30.01F  
MEADVILLE SUNNY 72 23 16 E8G20 29.98F  
FRANKLIN* SUNNY 70 30 23 SE15G24 30.01F  
NEW CASTLE FAIR 66 43 43 E10G21 30.00F  
BEAVER COUNTY CLOUDY 64 41 42 MISG 30.00F  
BUTLER* CLOUDY 63 43 48 E17G25 30.03F  
PITTSBURGH INT LGT RAIN 61 40 45 E13G22 30.00F  
PITTSBURGH CLOUDY 58 37 45 E10 30.00F  
INDIANA* PTSUNNY 59 39 47 SE14G21 30.07F  
LATROBE PTSUNNY 57 39 51 MISG 30.03F  
WASHINGTON CO* CLOUDY 57 39 51 E9 30.02F  

 
 
PAZ004>006-010>012-017>019-024>028-033>037-041-042-045-046-049>053-242100-  
CENTRAL PENNSYLVANIA  
 
CITY SKY/WX TMP DP RH WIND PRES REMARKS
 
BRADFORD SUNNY 70 24 17 SE10G21 30.02F  
DUBOIS CLOUDY 62 33 33 E17 30.04F  
CLEARFIELD LGT RAIN 63 34 33 SE8G20 30.07F  
JOHNSTOWN LGT RAIN 51 39 63 E10G17 30.03F  
ALTOONA CLOUDY 57 41 55 E10 30.06F  
STATE COLLEGE CLOUDY 61 36 39 E8 30.08F  
WILLIAMSPORT CLOUDY 67 34 29 E7 30.06F  
SELINSGROVE CLOUDY 63 48 58 CALM 30.08F  
FT INDIANTOWN NOT AVBL  
CAPITAL CITY RAIN 57 46 66 E10 30.09S  
HARRISBURG CLOUDY 58 49 72 E6 30.07F  
YORK CLOUDY 58 46 64 NE10 30.06F  

 
 
PAZ038>040-043-044-047-048-054-055-060>062-067>071-242100-  
EASTERN PENNSYLVANIA  
 
CITY SKY/WX TMP DP RH WIND PRES REMARKS
 
SCRANTON CLOUDY 68 31 25 SE7 30.08F  
MOUNT POCONO CLOUDY 58 40 51 SE10 30.12F  
ALLENTOWN LGT RAIN 60 41 49 E12 30.12F  
QUAKERTOWN* CLOUDY 55 41 58 E5 30.13S  
READING CLOUDY 56 45 66 E7 30.10S  
LANCASTER CLOUDY 59 47 64 NE9 30.08F  
COATESVILLE CLOUDY 57 41 54 NE6G21 30.09F  
POTTSTOWN CLOUDY 57 36 45 E10 30.11F  
BLUE BELL CLOUDY 55 39 54 NE6 30.12F  
DOYLESTOWN LGT RAIN 57 40 52 NE8 30.11F  
WILLOW GROVE NOT AVBL  
NORTH PHILA CLOUDY 59 42 53 NE10 30.12F  
PHILADELPHIA CLOUDY 59 43 55 E13 30.10F  

 
 
 
CLICK HERE TO GO TO PREVIOUS BULLETINS.

The Nexlab PA Page Main Text Page